Location: Poughquag
(41.6090°N, 73.6820°W)
Time: 11:53:38
(UTC-05:00)

ISS - Visible Passes

Search period start: 17 January 2020 00:00
Search period end: 27 January 2020 00:00
Orbit: 415 x 421 km, 51.6° (Epoch: 18 January)

Date Brightness Start Highest point End Pass type
(mag) Time Alt. Az. Time Alt. Az. Time Alt. Az.
18 Jan -1.6 18:35:37 10° S 18:36:54 16° SSE 18:36:54 16° SSE visible
19 Jan -1.5 17:49:08 10° SSE 17:50:21 12° SE 17:51:21 11° ESE visible
19 Jan -1.1 19:23:18 10° SW 19:24:19 18° WSW 19:24:19 18° WSW visible
20 Jan -3.6 18:35:25 10° SW 18:38:39 56° SE 18:38:39 56° SE visible
21 Jan -2.7 17:47:46 10° SSW 17:50:48 32° SE 17:52:55 16° E visible
21 Jan -1.2 19:24:26 10° W 19:25:52 21° W 19:25:52 21° W visible
22 Jan -3.3 18:36:10 10° WSW 18:39:28 53° NNW 18:40:03 45° N visible
23 Jan -3.8 17:48:03 10° SW 17:51:25 87° NW 17:54:10 15° NE visible
23 Jan -1.0 19:25:57 10° WNW 19:27:06 16° NW 19:27:06 16° NW visible
24 Jan -2.2 18:37:28 10° W 18:40:23 26° NNW 18:41:09 24° N visible
25 Jan -2.6 17:49:04 10° W 17:52:13 36° NNW 17:55:08 11° NE visible
25 Jan -0.7 19:27:34 10° NW 19:28:04 12° NW 19:28:04 12° NW visible
26 Jan -1.7 18:39:03 10° WNW 18:41:25 18° NNW 18:42:01 17° N visible
